Retour au catalogue

STARLINK-1470

ActifCommunicationsVLEO
NORAD 45772·PAYLOAD·🇺🇸 United States

Lancé Jun 13, 2020 depuis Cape Canaveral Space Force Station

Loading…

Prochains Passages (prochaines 24 heures)

TLE

FraisSource: CelesTrak SupGP

Époque: Sep 15, 2026, 01:17 UTC

1 45772C 20038AU  26258.05395833  .00025231  00000+0  56782-3 0  2588
2 45772  53.0407   5.1220 0002426 335.1995 272.0764 15.42703467    13

Suivez STARLINK-1470 en temps réel avec AllMySat

Download on the App Store